Tracking 23726 objects as of 24-Sep-2021
HD Live streaming from Space Station
objects crossing your sky now

STARLINK-2205

Track STARLINK-2205 now!
10-day predictions
STARLINK-2205 is classified as:


NORAD ID: 47419
Int'l Code: 2021-006G
Perigee: 527.5 km
Apogee: 532.9 km
Inclination: 97.5 °
Period: 95.1 minutes
Semi major axis: 6901 km
RCS: Unknown
Launch date: January 24, 2021
Source: United States (US)
Launch site: AIR FORCE EASTERN TEST RANGE (AFETR)
aabbcc
Your satellite tracking list
Your tracking list is empty




NASA's NSSDC Master Catalog

Two Line Element Set (TLE):
1 47419U 21006G   21266.75023201  .00000010  00000-0  41058-5 0  9995
2 47419  97.4871 326.8952 0003923 166.0171 194.1171 15.14324593 36951
Source of the keplerian elements: AFSPC